[[{"header":{"parameterUnit":"m.s-1","parameterCategory":1,"la1":30.2991,"la2":30.254,"lo1":-89.0895,"lo2":-89.0444,"dy":0.0017,"dx":0.0017,"nx":28,"ny":28,"refTime":"2024-10-20T21:00:00:Z","depth":0,"parameterNumber":2,"parameterNumberName":"U-component_of_WINDS"},"data":[0,0,0,0,0,0,0,0,0,0,0,0,0,0,0,0,0,0,0,0,0,0,0,0,0,0,0,0,0,0,0,0,0,0,0,0,0,0,0,0,0,0,0,0,0,0,0,0,0,0,0,0,0,0,0,0,0,0,-1.3766,-1.3765,0,-1.3704,-1.3703,-1.3703,-1.3606,-1.3604,-1.3602,-1.36,-1.3537,-1.3537,-1.3537,0,0,0,0,0,0,0,0,0,0,0,0,0,-1.3801,-1.3801,-1.3766,-1.3765,-1.3764,-1.3704,-1.3703,-1.3702,-1.3606,-1.3604,-1.3602,-1.36,-1.3537,-1.3537,-1.3537,0,0,0,0,0,0,0,0,0,0,0,0,0,-1.3768,-1.3801,-1.3766,-1.3709,-1.3703,-1.3704,-1.3703,-1.3702,-1.3606,-1.3604,-1.3601,-1.3599,-1.3537,-1.3537,-1.3537,-1.3589,0,0,-1.3537,-1.3537,0,0,0,0,0,0,0,0,-1.377,-1.3766,-1.3718,-1.3713,-1.3706,-1.366,-1.3693,-1.3664,-1.3607,-1.3643,-1.36,-1.3597,-1.358,-1.3576,-1.3571,-1.3586,-1.3584,-1.3537,-1.3537,-1.3537,-1.3537,0,0,0,0,0,0,0,-1.3772,-1.3768,-1.3741,-1.3717,-1.371,-1.3687,-1.3679,-1.3687,-1.3627,-1.364,-1.3633,-1.3627,-1.3577,-1.3571,-1.3568,-1.3583,-1.3537,-1.3537,-1.3537,-1.3537,-1.3642,-1.3644,0,0,0,0,0,0,-1.3783,-1.3771,-1.3743,-1.3739,-1.3732,-1.3688,-1.368,-1.3677,-1.3627,-1.3617,-1.3629,-1.3622,-1.3572,-1.3569,-1.3566,-1.3626,-1.3537,-1.3537,-1.3537,-1.3639,-1.3642,-1.3645,0,0,0,0,0,0,-1.3784,-1.3781,-1.3746,-1.3753,-1.3747,-1.369,-1.3689,-1.3678,-1.3672,-1.3619,-1.3608,-1.3634,-1.357,-1.3566,-1.3585,-1.3622,-1.3537,-1.3537,-1.3635,-1.364,-1.3644,-1.3745,0,0,0,0,0,0,-1.3785,-1.3782,-1.3801,-1.3754,-1.3747,-1.3766,-1.3691,-1.3678,-1.3672,-1.3663,-1.3621,-1.3611,-1.3568,-1.3586,-1.3585,-1.362,-1.3537,-1.3632,-1.3637,-1.3642,-1.3738,-1.3752,-1.3764,0,0,0,0,0,-1.3787,-1.3831,-1.3802,-1.3799,-1.3769,-1.3768,-1.3764,-1.3713,-1.3675,-1.3694,-1.3661,-1.3612,-1.3618,-1.3588,-1.3587,-1.3623,-1.3629,-1.3636,-1.3642,-1.3732,-1.3749,-1.3764,0,0,0,0,0,0,-1.3882,-1.3824,-1.3791,-1.3821,-1.3801,-1.3751,-1.3773,-1.3732,-1.3721,-1.3713,-1.3651,-1.3642,-1.367,-1.3648,-1.3616,-1.3672,-1.3616,-1.3623,-1.3686,-1.3701,-1.3714,-1.3719,-1.3537,0,0,0,0,0,-1.3907,-1.391,-1.3859,-1.3891,-1.3882,-1.383,-1.3827,-1.3791,-1.3766,-1.3757,-1.3724,-1.3703,-1.37,-1.3699,-1.3693,-1.3734,-1.3725,-1.3759,-1.3772,-1.3783,-1.3789,-1.3812,-1.3827,-1.3666,-1.3666,-1.3666,0,0,-1.3957,-1.3926,-1.3932,-1.3909,-1.3889,-1.3895,-1.3823,-1.3832,-1.3836,-1.3758,-1.3775,-1.3751,-1.3723,-1.3754,-1.3766,-1.3736,-1.3832,-1.3791,-1.38,-1.38,-1.382,-1.3835,-1.3849,-1.367,-1.367,-1.3669,0,0,-1.4053,-1.4029,-1.4054,-1.4036,-1.4006,-1.3971,-1.3978,-1.3936,-1.3917,-1.3933,-1.3875,-1.388,-1.3875,-1.3859,-1.385,-1.3943,-1.3899,-1.3943,-1.4011,-1.4034,-1.4047,-1.4058,-1.4094,-1.4107,-1.3949,-1.395,-1.395,0,-1.412,-1.4126,-1.4072,-1.4086,-1.4078,-1.4009,-1.4035,-1.402,-1.399,-1.3987,-1.3954,-1.395,-1.3926,-1.3953,-1.3977,-1.3971,-1.3978,-1.3947,-1.405,-1.406,-1.407,-1.4103,-1.4116,-1.3955,-1.3955,-1.3954,-1.3954,0,-1.4211,-1.4217,-1.4241,-1.4215,-1.421,-1.423,-1.418,-1.4182,-1.4146,-1.4116,-1.4134,-1.4104,-1.4092,-1.4096,-1.406,-1.4119,-1.4102,-1.4061,-1.4004,-1.4092,-1.4122,-1.4134,-1.3963,-1.3961,-1.396,-1.3958,0,0,-1.4363,-1.4309,-1.4319,-1.4308,-1.4272,-1.4275,-1.4293,-1.4282,-1.4286,-1.4269,-1.4283,-1.4283,-1.4245,-1.4235,-1.4197,-1.4218,-1.4297,-1.4173,-1.4172,-1.4199,-1.4363,-1.4396,-1.4411,-1.4267,-1.427,-1.4271,-1.4366,0,-1.4453,-1.448,-1.4433,-1.4471,-1.4477,-1.4413,-1.4429,-1.4409,-1.4382,-1.4383,-1.4353,-1.4355,-1.4304,-1.4298,-1.4315,-1.4284,-1.4329,-1.4276,-1.4282,-1.4283,-1.4292,-1.4426,-1.446,-1.4551,-1.4377,-1.4379,-1.438,0,-1.456,-1.455,-1.4589,-1.4553,-1.4554,-1.4569,-1.4557,-1.4559,-1.4536,-1.4515,-1.4506,-1.4462,-1.4478,-1.4423,-1.4446,-1.4411,-1.4411,-1.4396,-1.4399,-1.4398,-1.4338,-1.4431,-1.4578,-1.4593,-1.4398,-1.4397,-1.4395,0,-1.467,-1.4665,-1.4689,-1.4681,-1.4639,-1.4652,-1.4635,-1.4609,-1.4607,-1.4597,-1.4595,-1.4587,-1.4582,-1.4578,-1.4534,-1.4497,-1.4563,-1.4503,-1.4547,-1.4549,-1.4564,-1.4564,-1.4715,-1.4562,-1.4562,-1.4562,-1.4562,0,-1.4775,-1.4802,-1.4738,-1.4753,-1.4782,-1.4729,-1.476,-1.4736,-1.4715,-1.4725,-1.4669,-1.468,-1.462,-1.4625,-1.4591,-1.4617,-1.4615,-1.4599,-1.459,-1.4605,-1.4608,-1.4605,-1.4598,-1.4565,-1.4565,-1.4564,-1.4563,0,-1.4903,-1.486,-1.4883,-1.4842,-1.4833,-1.4857,-1.4822,-1.4835,-1.4805,-1.4819,-1.4819,-1.4772,-1.4776,-1.4731,-1.4725,-1.4703,-1.4745,-1.4723,-1.4753,-1.4747,-1.4794,-1.4791,-1.4949,-1.4969,-1.4803,-1.4804,-1.4806,0,-1.4973,-1.4993,-1.4955,-1.4958,-1.4945,-1.495,-1.4948,-1.4897,-1.4897,-1.4875,-1.4891,-1.489,-1.4886,-1.4895,-1.4861,-1.4857,-1.4836,-1.4892,-1.4835,-1.4851,-1.484,-1.484,-1.4843,-1.4905,-1.4907,-1.4908,-1.491,0,-1.5103,-1.5082,-1.5081,-1.5075,-1.5074,-1.5066,-1.5054,-1.506,-1.5005,-1.5008,-1.5011,-1.5009,-1.5004,-1.5005,-1.4995,-1.4978,-1.4936,-1.4928,-1.4938,-1.4954,-1.4971,-1.4965,-1.4787,-1.4925,-1.4923,-1.4922,-1.4921,-1.4921,-1.5205,-1.5221,-1.5198,-1.52,-1.5186,-1.5177,-1.5188,-1.5161,-1.5163,-1.5155,-1.5125,-1.5135,-1.5114,-1.5097,-1.5085,-1.5092,-1.5065,-1.5079,-1.5083,-1.5088,-1.5098,-1.497,-1.509,-1.5089,-1.5089,-1.5088,-1.5088,0,-1.5334,-1.5317,-1.5319,-1.5306,-1.5308,-1.5268,-1.5254,-1.5259,-1.5268,-1.5252,-1.5251,-1.5256,-1.5257,-1.5225,-1.5222,-1.5234,-1.5215,-1.5235,-1.5235,-1.5232,-1.5121,-1.5113,-1.5251,-1.5251,-1.5251,-1.5251,-1.5251,-1.5251,-1.5402,-1.5427,-1.5404,-1.5423,-1.5406,-1.5415,-1.5411,-1.5403,-1.5391,-1.54,-1.54,-1.5379,-1.5358,-1.5354,-1.5354,-1.5344,-1.5346,-1.5374,-1.5358,-1.5255,-1.5239,-1.5224,-1.5217,-1.5375,-1.5375,-1.5469,-1.547,-1.5471]},{"header":{"parameterUnit":"m.s-1","parameterCategory":1,"la1":30.2991,"la2":30.254,"lo1":-89.0895,"lo2":-89.0444,"dy":0.0017,"dx":0.0017,"nx":28,"ny":28,"refTime":"2024-10-20T21:00:00:Z","depth":0,"parameterNumber":3,"parameterNumberName":"V-component_of_WINDS"},"data":[0,0,0,0,0,0,0,0,0,0,0,0,0,0,0,0,0,0,0,0,0,0,0,0,0,0,0,0,0,0,0,0,0,0,0,0,0,0,0,0,0,0,0,0,0,0,0,0,0,0,0,0,0,0,0,0,0,0,0.5581,0.5581,0,0.5581,0.5581,0.5581,0.5652,0.5654,0.5656,0.5657,0.5653,0.5651,0.5649,0,0,0,0,0,0,0,0,0,0,0,0,0,0.5637,0.5636,0.5581,0.5581,0.5581,0.5581,0.5581,0.5581,0.5652,0.5654,0.5656,0.5658,0.5653,0.5651,0.5649,0,0,0,0,0,0,0,0,0,0,0,0,0,0.5622,0.5635,0.5581,0.5616,0.5619,0.5581,0.5581,0.5581,0.5651,0.5654,0.5657,0.5659,0.5654,0.5651,0.5648,0.5575,0,0,0.564,0.5639,0,0,0,0,0,0,0,0,0.5623,0.562,0.5611,0.5614,0.5617,0.5619,0.5599,0.5579,0.565,0.5639,0.5657,0.5661,0.5639,0.5638,0.5631,0.5575,0.5574,0.564,0.5638,0.5637,0.5636,0,0,0,0,0,0,0,0.5624,0.5621,0.5581,0.5611,0.5614,0.5631,0.5632,0.5596,0.5623,0.564,0.5645,0.5645,0.5641,0.5634,0.5632,0.5574,0.564,0.5637,0.5635,0.5634,0.5455,0.5453,0,0,0,0,0,0,0.5621,0.5621,0.5581,0.5581,0.5627,0.5627,0.5628,0.5616,0.5624,0.5628,0.5642,0.5648,0.5637,0.5635,0.5632,0.5544,0.5637,0.5634,0.5633,0.5458,0.5455,0.5451,0,0,0,0,0,0,0.5622,0.5617,0.5581,0.5602,0.5599,0.5623,0.5608,0.5614,0.5607,0.5625,0.563,0.563,0.5639,0.5636,0.5588,0.5545,0.5633,0.563,0.5462,0.5457,0.5453,0.5369,0,0,0,0,0,0,0.5623,0.5617,0.559,0.5601,0.5598,0.5538,0.5606,0.5612,0.5603,0.561,0.5615,0.5618,0.5641,0.5592,0.5586,0.5543,0.5628,0.5466,0.546,0.5455,0.5376,0.5362,0.535,0,0,0,0,0,0.5625,0.5565,0.5588,0.5583,0.5565,0.5536,0.5534,0.5562,0.5599,0.5571,0.5583,0.5618,0.5552,0.5587,0.558,0.5535,0.5469,0.5462,0.5455,0.5381,0.5365,0.5351,0,0,0,0,0,0,0.5546,0.5568,0.5593,0.5536,0.5534,0.5548,0.5514,0.5544,0.553,0.5538,0.5573,0.5574,0.552,0.5524,0.5562,0.5464,0.5516,0.5508,0.5463,0.5447,0.5435,0.5433,0.5626,0,0,0,0,0,0.5523,0.5499,0.5518,0.5466,0.5464,0.5489,0.5477,0.55,0.5499,0.5497,0.5506,0.5502,0.548,0.5464,0.5445,0.5378,0.5378,0.5344,0.5331,0.5321,0.5312,0.5274,0.5258,0.5429,0.5429,0.5429,0,0,0.5473,0.5482,0.5464,0.545,0.5451,0.5424,0.5487,0.5456,0.5435,0.5492,0.5447,0.5454,0.5451,0.5393,0.5368,0.5394,0.5265,0.5312,0.5304,0.53,0.5265,0.5249,0.5235,0.5424,0.5425,0.5426,0,0,0.5367,0.5373,0.5329,0.5329,0.533,0.5348,0.5337,0.5347,0.5353,0.531,0.5351,0.5327,0.5289,0.5285,0.5278,0.5172,0.5203,0.5165,0.5097,0.506,0.5047,0.5035,0.4994,0.4979,0.5157,0.5156,0.5156,0,0.5304,0.5266,0.5302,0.5267,0.5259,0.5312,0.5266,0.5264,0.5258,0.525,0.5281,0.5234,0.5237,0.5177,0.5151,0.5145,0.5132,0.5163,0.5046,0.5035,0.5024,0.4985,0.497,0.5152,0.5152,0.5153,0.5153,0,0.5187,0.516,0.5124,0.5119,0.5107,0.5067,0.5095,0.5078,0.5103,0.5116,0.507,0.5075,0.5057,0.5046,0.5069,0.4989,0.5005,0.5041,0.5093,0.5002,0.4966,0.4952,0.5145,0.5146,0.5148,0.5149,0,0,0.5029,0.5045,0.5031,0.5028,0.5034,0.5013,0.4975,0.4959,0.4943,0.4938,0.4905,0.4873,0.4905,0.4897,0.4921,0.4889,0.48,0.4928,0.4929,0.4901,0.471,0.468,0.4662,0.4823,0.482,0.4818,0.4709,0,0.4925,0.4862,0.4893,0.4825,0.4799,0.4849,0.4816,0.4815,0.4827,0.4805,0.4818,0.4793,0.484,0.4836,0.4806,0.4817,0.4762,0.4826,0.4789,0.4788,0.4785,0.4644,0.4613,0.4509,0.4695,0.4693,0.4691,0,0.4793,0.4783,0.4713,0.4723,0.4713,0.4683,0.467,0.465,0.465,0.466,0.4652,0.4683,0.4644,0.47,0.4646,0.4689,0.4676,0.4679,0.4676,0.4671,0.4731,0.4631,0.4477,0.446,0.467,0.4672,0.4673,0,0.4681,0.465,0.4604,0.4601,0.4612,0.4589,0.4592,0.4595,0.4583,0.4572,0.4564,0.4548,0.4539,0.4525,0.455,0.4588,0.4491,0.455,0.4497,0.4496,0.4471,0.4471,0.4308,0.4469,0.4469,0.4469,0.4469,0,0.4558,0.4512,0.4554,0.4524,0.4474,0.4511,0.4459,0.4468,0.447,0.4442,0.4486,0.4458,0.4495,0.447,0.449,0.4441,0.4437,0.4443,0.4447,0.4436,0.4435,0.4426,0.4432,0.4465,0.4466,0.4467,0.4467,0,0.4422,0.4449,0.4401,0.4416,0.4419,0.4381,0.4393,0.4366,0.4382,0.4346,0.4339,0.4363,0.4337,0.4362,0.4337,0.435,0.4283,0.43,0.4283,0.4286,0.4231,0.4234,0.4053,0.403,0.4208,0.4207,0.4205,0,0.434,0.4307,0.4318,0.4304,0.4305,0.428,0.4269,0.4304,0.4289,0.4287,0.4259,0.4237,0.4221,0.4176,0.419,0.417,0.4185,0.4123,0.4182,0.4172,0.418,0.418,0.4176,0.411,0.4108,0.4106,0.4105,0,0.4191,0.4206,0.4189,0.4175,0.416,0.4151,0.4145,0.413,0.4166,0.4148,0.4122,0.411,0.4085,0.4061,0.4046,0.4048,0.408,0.4087,0.4073,0.4059,0.4049,0.405,0.4246,0.409,0.4091,0.4092,0.4093,0.4094,0.4078,0.4049,0.4053,0.4031,0.4031,0.4024,0.3999,0.4012,0.3992,0.3975,0.3997,0.3965,0.3965,0.3948,0.3946,0.392,0.3946,0.3927,0.3921,0.3915,0.3905,0.4057,0.3918,0.3919,0.3919,0.392,0.392,0,0.3927,0.3933,0.3913,0.3904,0.3886,0.3922,0.3918,0.39,0.3871,0.3869,0.3853,0.3822,0.38,0.3813,0.3793,0.377,0.3784,0.3763,0.3763,0.3762,0.3885,0.3897,0.3751,0.3751,0.3751,0.3751,0.3752,0.3752,0.3847,0.38,0.3815,0.3768,0.3773,0.3743,0.3737,0.373,0.3729,0.3693,0.3675,0.3685,0.3688,0.3669,0.3649,0.3654,0.3642,0.3615,0.3624,0.3737,0.3754,0.377,0.3781,0.3613,0.3613,0.3503,0.3502,0.3501]}]]